Regional Weather Roundup
Issued by NWS

Home | Current Version | Previous Version | Text Only | Print | Product List | Glossary On
Versions: 1 2 3 4 5 6 7 8 9 10 11 12 13 14 15 16 17 18 19 20 21 22 23 24 25 26 27 28 29 30 31 32 33 34 35 36 37 38 39 40 41 42 43 44 45 46 47 48 49 50
000
ASHW40 PHFO 270243
RWRHI

WEATHER ROUNDUP FOR HAWAII
NATIONAL WEATHER SERVICE HONOLULU HI
400 PM HST MON JUN 26 2017

THIS IS AN AUTOMATED REPORT THAT HAS NOT BEEN QUALITY CONTROLLED.

NOTE..."FAIR" INDICATES FEW OR NO CLOUDS BELOW 12,000 FEET WITH NO
SIGNIFICANT WEATHER AND/OR OBSTRUCTIONS TO VISIBILITY.

* - THESE SITES REPORT LIMITED FIELDS

HIZ001>004-270300-
KAUAI-NIIHAU-

CITY           SKY/WX    TMP DP  RH WIND       PRES   REMARKS
LIHUE APT      MOSUNNY   85  71  63 E14       30.06F HX  90
PORT ALLEN*    NOT AVBL
POIPU*         NOT AVBL
PRINCEVILLE*   NOT AVBL
KOKOLE POINT*  NOT AVBL
MOLOAA DAIRY*    N/A     82  72  69 E10G18      N/A
WAIMEA HTS*      N/A     90  70  51 W7G13       N/A  HX  95
PUU OPAE*      NOT AVBL
PUU LUA*       NOT AVBL
MAKAHA RIDGE*    N/A     81  68  65 SW3G9       N/A
$$

HIZ005>011-270300-
OAHU-

CITY           SKY/WX    TMP DP  RH WIND       PRES   REMARKS
HONOLULU       PTSUNNY   85  66  53 NE21G26   30.02F
KALAELOA       CLOUDY    85  68  56 E9G16     30.03S
KANEOHE MCB    PTSUNNY   84  72  67 NE13G20   30.02
WHEELER FIELD  FAIR      83  69  63 E15       30.03S
BELLOWS*       NOT AVBL
KAHUKU*        NOT AVBL
WHEELER*       NOT AVBL
WAIANAE HARBOR NOT AVBL
DILLINGHAM*      N/A     91  75  59 SW10G18     N/A  HX 102
KAHUKU TRN*      N/A     81  70  69 W10G22      N/A
KAWAILOA*        N/A     79  68  69 E12G22      N/A
KII*             N/A     82  73  74 E17G23      N/A
MAKUA RANGE*     N/A     86  72  62 E3          N/A  HX  92
OAHU FOREST NW   N/A     75  66  73 E15G29      N/A
SCHOFIELD BRK*   N/A     82  70  65 MISG        N/A
SCHOFIELD S*   NOT AVBL
WAIANAE VLY*     N/A     82  66  57 E7G15       N/A
KUAOKALA*        N/A     79  70  73 NE18G30     N/A
HONOULIUULI*   NOT AVBL
MOKUOLOE IS*   NOT AVBL
PALEHUA*         N/A     73  64  73 E7G13       N/A
WAIAWA PHB*    NOT AVBL
$$

HIZ012>013-270300-
MOLOKAI-

CITY           SKY/WX    TMP DP  RH WIND       PRES   REMARKS
MOLOKAI AIRPT  SUNNY     85  70  60 NE13G25   30.04S
KALAUPAPA      NOT AVBL
MAKAPULAPAI*     N/A     84  70  61 E21G28      N/A
MOLOKAI 1*       N/A     75  59  57 NE2G16      N/A
PUU ALII*        N/A     72  64  75 NE3G9       N/A
$$

HIZ016-270300-
KAHOOLAWE-

CITY           SKY/WX    TMP DP  RH WIND       PRES   REMARKS
KAHOOLAWE*     NOT AVBL
HAKIOAWA*        N/A     77  68  73 MISG      30.45S
HONOKANAIA*      N/A     86  69  57 NE18G35   29.96F HX  90
KANELOA*         N/A     81  70  69 E23G37    30.09
KEALIALALO*    NOT AVBL
LUA MAKIKA*    NOT AVBL
$$

HIZ014>015-270300-
LANAI-

CITY           SKY/WX    TMP DP  RH WIND       PRES   REMARKS
LANAI CITY     CLOUDY    76  68  76 VRB3      30.09S
LANAI 1*       NOT AVBL
$$

HIZ017>028-270300-
MAUI-

CITY           SKY/WX    TMP DP  RH WIND       PRES   REMARKS
KAHULUI        MOSUNNY   87  68  52 NE25G33   30.00F HX  90
KAPALUA-W MAUI PTSUNNY   84  66  54 NE15G26   30.04
HANA AIRPORT   CLOUDY    81  72  74 SE8       30.09S
HANA*            N/A     81 N/A N/A SE7G13      N/A
HALEAKALA SUMM   N/A     52  21  30 E31G46      N/A
MAALAEA BAY*   NOT AVBL
HALEAKALA*     NOT AVBL
KAUPO GAP*     NOT AVBL
KULA 1*          N/A     70  48  44 NW9G21      N/A
$$

HIZ023>026-270300-
BIG ISLAND OF HAWAII COAST AND LOWER SLOPES-

CITY           SKY/WX    TMP DP  RH WIND       PRES   REMARKS
KAILUA KONA    MOSUNNY   88  70  55 SW13      29.98F HX  93
HILO           MOSUNNY   85  66  53 E12       30.04F
HONOKAA*         N/A     75 N/A N/A VRB1        N/A
KAWAIHAE MWT*    N/A     91 N/A N/A E9G26       N/A
KAWAIHAE*        N/A     82 N/A N/A NW15      29.98R
SOUTH POINT*     N/A     77 N/A N/A N18G28      N/A
UPOLU AIRPORT* NOT AVBL
KAMUELA*         N/A     70  63  78 NE18      30.13S
HAKALAU*         N/A     72  36  27 SE6G18      N/A
KALOKO-HONOKO*   N/A     84  70  61 S8        29.99S
PALI 2*          N/A     81  59  47 S14G21      N/A
KEALAKOMO*       N/A     82  68  61 E21G31      N/A
KAUPULEHU*       N/A     84  68  58 W12G23      N/A
KAPAPALA*        N/A     76  67  72 E6G16       N/A
LOWER KAHUKU*    N/A     64  63  94 NE3G14      N/A
PUHE CS*         N/A     90  64  43 E14G26      N/A  HX  91
PUHO CS*         N/A     82  69  64 W2          N/A
PTA KEAMUKU*   NOT AVBL
WAIKOLOA*        N/A     82  64  54 NE15G29     N/A
$$

HIZ027>028-270300-
BIG ISLAND OF HAWAII INTERIOR AND SUMMMITS-

CITY           SKY/WX    TMP DP  RH WIND       PRES   REMARKS
BRADSHAW FIELD SUNNY     75  22  14 S24G35    30.31F
MK VISITOR CEN   N/A     55  21  26 E14         N/A
MAUNA KEA*       N/A     45   0  15 E3          N/A
MAUNA LOA*       N/A     59   9  13 MISG        N/A
MAUNA LOA 1*   NOT AVBL
PTA KIPUKA*      N/A     72  55  56 NW9G18      N/A
PTA RANGE 17*    N/A    N/A N/A N/A SE23G36     N/A
PTA WEST*        N/A     73  59  60 NW12G21     N/A
NENE CABIN*      N/A    N/A N/A N/A E14G26      N/A
AHUMOA*          N/A     63  59  87 NW6G15      N/A
PTA PORTABLE*  NOT AVBL
PUU MALI*        N/A     72 N/A N/A E24G44      N/A
$$

HIC003-270300-
NORTHWEST ISLANDS-

CITY           SKY/WX    TMP DP  RH WIND       PRES   REMARKS
MIDWAY ISLAND  MOSUNNY   81  68  65 NE12      30.16F
MIDWAY NOS*      N/A     79 N/A N/A MISG      30.14F
FRENCH FRIGATE NOT AVBL
$$

PHZ110>124-180-270300-
BUOY REPORTS

STATION/POSITION TIME  TEMP    WIND        PRES    WAVE   SWELL
                       AIR SEA DIR/SP/G            HT/PER HT/DIR
                 (UTC) (F)     (DEG/KT/KT) (MB)    (FT/S) (FT/D)
BUOY 51001       0220   79 81  110/ 10/ 12 1017.5
BUOY 51101       0150   79 81  110/ 14/ 16 1018.0F   6/11   5/110
BUOY 51100       NOT AVBL
BUOY 51002       0220   79 79   60/ 17/ 21 1014.5
BUOY 51003       0150   80 81   50/ 12/ 14 1015.8F   5/14   5/130
BUOY 51004       0150      79   80/ 17/ 21 1015.1F   8/11   5/ 80
BARBERS PT BUOY  NOT AVBL
WAIMEA BAY BUOY  0202      78                N/A     4/11   2/ 30
KAILUA BAY BUOY  0204      80                N/A     7/11   3/ 50
LANAI BUOY       NOT AVBL
BARBERS PT 2     NOT AVBL
PAUWELA MAUI     0209      79                N/A     6/11   3/ 50
HILO             0227      80                N/A     5/11   3/ 40
KANEOHE BAY BUOY 0225      80                N/A     6/ 6   2/ 60
HANALEI KAUAI    0222      80                N/A     6/12   3/ 40
KAHULUI HARBOR   0212   80 81   60/ 15/ 23 1016.4
HONOLULU HARBOR  0200   82 81  110/  8/ 15 1017.6
KILO NALU        NOT AVBL
HILO HARBOR      0212   89 79   80/  8/ 11 1017.1
MOKUOLOE         0136   82 83   90/ 10/ 16 1017.7F
NAWILIWILI       0212   80 82   80/ 13/ 14 1017.4
WHOTS BUOY       NOT AVBL
BUOY 51028       NOT AVBL
$$

......................KEY........................................
  SKY/WX - SKY CONDITIONS/PRESENT WEATHER
  TMP    - TEMPERATURE IN FAHRENHEIT
  DWPT   - DEWPOINT IN FAHRENHEIT
  RH     - RELATIVE HUMIDITY IN PERCENT
  WIND   - DIRECTION AND SPEED /MPH FOR ISLANDS...KTS FOR BUOYS/
  PRES   - MEAN SEA LEVEL PRESSURE IN INCHES OF HG
  VSB    - VISIBILITY IN MILES
  HX     - HEAT INDEX
  WCI    - WIND CHILL INDEX
  VRB    - VARIABLE WIND DIRECTION
  N/A    - NOT AVAILABLE




USA.gov is the U.S. government's official web portal to all federal, state and local government web resources and services.